Kezdőlap
METAR-TAF:

METAR-TAF

Repülőterek :

Mount Pleasant Municipal Airport

Mount Pleasant, Iowa, Amerikai Egyesült Államok

földrajzi szélesség: 40-56-48N, földrajzi hosszúság: 091-30-40W, magasság: 224 m

Jelenlegi meteorológiai megfigyelések

A jelentés 30 perccel ezelõtt készült, 17:15 UTC
Délkeleti szél 7 kt
Hőmérséklet 6°C
Páratartalom 70%
Légköri nyomás 1023 hPa
Látótávolság: 16.1 km
Derült ég

METAR: KMPZ 081715Z AUTO 13007KT 10SM CLR 06/01 A3021 RMK AO2

Idő: 11:45 (17:45 UTC)


TAF: hiányzik

Meteorológiai megfigyelések és előrejelzések több, mint 4000 repülőtéren (METAR és TAF jelentéseket).

A térképen piros és sárga pontok jelzik az elérhető meteorológiai állomásokat.

Mozgassa az egeret a pont fölött, hogy megjelenjen az állomás neve.

Azután kattintson az időjárási megfigyelések és előrejelzések megtekintéséhez.

A térkép megváltoztatása: kattintson a fekete keresztel jelölt zöld gombra ráközelítéshez, a vonallal jelölt zöld gombra távolításhoz, vagy a zöld nyilakra a szomszédos térképek eléréséhez.


METAR-TAF: